Regional Weather Roundup
Issued by NWS

Home | Current Version | Previous Version | Graphics & Text | Print | Product List | Glossary Off
Versions: 1 2 3 4 5 6 7 8 9 10 11 12 13 14 15 16 17 18 19 20 21 22 23 24 25 26 27 28 29 30 31 32 33 34 35 36 37 38 39 40 41 42 43 44 45 46 47 48 49 50

000
ASUS43 KDMX 180707
RWRIA

WEATHER ROUNDUP FOR IOWA
NATIONAL WEATHER SERVICE DES MOINES IA
200 AM CDT SAT APR 18 2015

NOTE: "FAIR" INDICATES FEW OR NO CLOUDS BELOW 12,000 FEET WITH NO
SIGNIFICANT WEATHER AND/OR OBSTRUCTIONS TO VISIBILITY.

* - THESE STATIONS ARE NOT NWS STATIONS...THUS NOT UNDER NWS
QUALITY CONTROL.  THEY ALSO DO NOT REPORT WEATHER SUCH
AS PRECIPITATION OR FOG.

IAZ001>003-012>014-020>022-031>034-043>046-180800-
   NORTHWEST IOWA

CITY           SKY/WX    TMP DP  RH WIND       PRES   REMARKS
CARROLL *      MOCLDY    57  45  62 CALM      30.00F
CHEROKEE *     MOCLDY    55  48  76 N5        30.02S
DENISON *      CLOUDY    59  48  67 CALM      29.98S
LE MARS *      CLOUDY    57  46  67 NE5       30.02S
ORANGE CITY *  CLEAR     57  32  38 NE8       30.02F
SHELDON *      CLEAR     52  32  46 NE12      30.01F
SIOUX CITY     CLOUDY    61  49  64 N6        30.00F
SPENCER        MOCLDY    54  34  46 NE7       30.03S
STORM LAKE *   MOCLDY    61  45  55 NE9       30.02F
$$

IAZ055>058-069>071-079>083-090>094-180800-
   SOUTHWEST IOWA

CITY           SKY/WX    TMP DP  RH WIND       PRES   REMARKS
ATLANTIC *     CLOUDY    63  55  77 S5        30.00R
AUDUBON *      PTCLDY    61  52  72 CALM      30.01S
CLARINDA *     CLOUDY    63  59  88 N5        29.99F
COUNCIL BLFS * CLOUDY    64  55  72 SE8       29.98F
CRESTON *      CLOUDY    61  55  82 S8        30.01R
HARLAN  *      CLOUDY    61  57  88 N5        30.02F
LAMONI         CLOUDY    66  53  63 SE5       29.99F
RED OAK *      CLOUDY    64  57  77 E9        29.97F
SHENANDOAH *   MOCLDY    63  55  77 CALM      29.98S
$$

IAZ047>049-059>061-072>074-084-180800-
   CENTRAL IOWA

CITY           SKY/WX    TMP DP  RH WIND       PRES   REMARKS
AMES           MOCLDY    58  49  72 CALM      30.00S
ANKENY *       CLEAR     59  52  77 CALM      30.00F
CHARITON *     MOCLDY    63  52  67 E7        29.99F
DES MOINES     LGT RAIN  66  54  65 SW7       30.00S
GRINNELL*      MOCLDY    61  50  67 CALM      30.02S
KNOXVILLE *    CLOUDY    63  50  63 E6        29.99F
MARSHALLTOWN   MOCLDY    58  47  66 NE7       30.00F
PELLA *        MOCLDY    61  54  77 SE5       30.01F
PERRY *        MOCLDY    59  48  67 CALM      30.00F
$$

IAZ004>006-015-016-023>025-035-036-180800-
   NORTH CENTRAL IOWA

CITY           SKY/WX    TMP DP  RH WIND       PRES   REMARKS
ALGONA *       PTCLDY    55  45  67 NE7       30.03F
CLARION *      CLEAR     55  46  71 E9        30.02S
ESTHERVILLE    MOCLDY    49  34  56 N9        30.04S
FORT DODGE *   PTCLDY    54  45  71 E5        30.03S
MASON CITY     MOCLDY    53  43  68 N3        30.05S
FOREST CITY *  CLEAR     55  41  58 NE3       30.04S
IOWA FALLS *     N/A     55  45  67 CALM      30.03F
$$

IAZ007>011-017>019-026>030-037>042-050>054-066-180800-
   NORTHEAST IOWA

CITY           SKY/WX    TMP DP  RH WIND       PRES   REMARKS
CEDAR RAPIDS   PTCLDY    58  49  72 N6        30.00F
CHARLES CITY * CLOUDY    57  45  62 NE7       30.04R
CLINTON *      MOCLDY    57  46  67 CALM      30.03S
DECORAH *      CLEAR     55  45  67 CALM      30.03R
DUBUQUE        MOCLDY    57  46  66 CALM      30.02S
MONTICELLO *   CLEAR     55  55 100 CALM      30.02S
OELWEIN *      CLOUDY    59  46  63 NE3       30.04R
WATERLOO       PTCLDY    53  46  77 N5        30.02R
$$

IAZ064-065-067-068-078-180800-
   EAST CENTRAL IOWA

CITY           SKY/WX    TMP DP  RH WIND       PRES   REMARKS
DAVENPORT      PTCLDY    55  45  68 CALM      30.02R
IOWA CITY      PTCLDY    56  50  80 CALM      30.02S
MT. PLEASANT * CLEAR     59  50  72 CALM      30.00F
MUSCATINE *    CLEAR     55  50  82 S5        30.02S
QUAD CITIES    CLEAR     53  47  79 CALM      30.01R
$$

IAZ062-063-075>077-085>089-095>099-180800-
   SOUTHEAST IOWA

CITY           SKY/WX    TMP DP  RH WIND       PRES   REMARKS
BURLINGTON     PTCLDY    59  52  77 CALM      30.00F
FAIRFIELD *    MOCLDY    59  50  72 SE5       30.00F
FORT MADISON * CLEAR     61  54  77 CALM      30.02S
KEOKUK *       CLEAR     59  54  82 CALM      30.00F
OSKALOOSA *      N/A     61  50  67 SE6       30.00F
CENTERVILLE *  CLEAR     63  54  72 E5        30.01F
OTTUMWA        PTCLDY    62  50  64 E5        30.00F
WASHINGTON *   MOCLDY    61  52  72 S5        30.01F
$$

ABBREVIATIONS USED IN REMARKS
   TC - TEMPERATURES IN CELSIUS
  WCI - WIND CHILL INDEX
   HX - HEAT INDEX
  VSB - VISIBILITY
$$




USA.gov is the U.S. government's official web portal to all federal, state and local government web resources and services.